sat.trackr.live / text

‹ back to catalog

STARLINK-34222

NORAD 64191 · 2025-113X

PAYLOAD ACTIVE UNKNOWN

§ Identity

Operator
Country
US
Launch date
2025-05-28
Launch site
AFETR
Launch vehicle
Mass (kg)
RCS (m²)

Purposes: comms

External: N2YO · Heavens-Above · Gunter

§ Orbital elements

Epoch: 2026-05-25T02:53:52.883808Z

Period
94.10 min
Inclination
53.1597°
Eccentricity
0.0001241
Mean motion
15.30205985 rev/d
Perigee alt
474.3 km
Apogee alt
476.0 km
Semi-major
6,853.3 km
B*
9.1696e-4
RAAN
96.3536°
Arg perigee
84.9845°
Mean anomaly
275.1297°
Rev number
5,672

§ Raw data

STARLINK-342221 64191U 25113X   26145.12075097  .00026902  00000+0  91696-3 0  99942 64191  53.1597  96.3536 0001241  84.9845 275.1297 15.30205985 56722

JSON: /api/v1/satellites/64191 · /tle

For live sub-satellite position, see the globe view (requires WebGL).

§ Visibility from observer

Set your observer location to see the next 7 days of passes ≥ 10°. The values pass through the URL so the page stays shareable.

No JS? Fill the form by hand. The geolocation button needs JavaScript.